Time,TemperatureF,DewpointF,PressureIn,WindDirection,WindDirectionDegrees,WindSpeedMPH,WindSpeedGustMPH,Humidity,HourlyPrecipIn,Conditions,Clouds,dailyrainin,SoftwareType,DateUTC
2013-01-10 00:03:00,29.0,28.0,-100.00,SE,125,1.0,2.0,97,-99.99,,,-99.99,,2013-01-10 05:03:00,
2013-01-10 00:12:00,28.0,28.0,-100.00,South,190,1.0,2.0,97,-99.99,,,-99.99,,2013-01-10 05:12:00,
2013-01-10 00:22:00,27.0,26.0,-100.00,SSE,165,0.0,1.0,97,-99.99,,,-99.99,,2013-01-10 05:22:00,
2013-01-10 00:33:00,27.0,26.0,-100.00,SSW,195,0.0,2.0,97,-99.99,,,-99.99,,2013-01-10 05:33:00,
2013-01-10 00:42:00,26.0,25.0,-100.00,SSE,165,1.0,2.0,98,-99.99,,,-99.99,,2013-01-10 05:42:00,
2013-01-10 00:52:00,26.0,25.0,-100.00,SSE,150,1.0,2.0,98,-99.99,,,-99.99,,2013-01-10 05:52:00,
2013-01-10 01:02:00,26.0,25.0,-100.00,SSE,150,2.0,3.0,98,-99.99,,,-99.99,,2013-01-10 06:02:00,
2013-01-10 01:12:00,26.0,25.0,-100.00,SE,140,2.0,4.0,98,-99.99,,,-99.99,,2013-01-10 06:12:00,
2013-01-10 01:22:00,26.0,26.0,-100.00,East,85,1.0,2.0,99,-99.99,,,-99.99,,2013-01-10 06:22:00,
2013-01-10 01:32:00,27.0,27.0,-100.00,East,95,1.0,1.0,99,-99.99,,,-99.99,,2013-01-10 06:32:00,
2013-01-10 01:42:00,27.0,27.0,-100.00,East,90,1.0,2.0,99,-99.99,,,-99.99,,2013-01-10 06:42:00,
2013-01-10 01:52:00,26.0,26.0,-100.00,ENE,75,2.0,2.0,99,-99.99,,,-99.99,,2013-01-10 06:52:00,
2013-01-10 02:02:00,26.0,26.0,-100.00,East,90,1.0,2.0,99,-99.99,,,-99.99,,2013-01-10 07:02:00,
2013-01-10 02:12:00,26.0,26.0,-100.00,ESE,120,1.0,1.0,99,-99.99,,,-99.99,,2013-01-10 07:12:00,
2013-01-10 02:22:00,26.0,26.0,-100.00,SSE,165,0.0,1.0,99,-99.99,,,-99.99,,2013-01-10 07:22:00,
2013-01-10 02:32:00,26.0,25.0,-100.00,SSE,165,0.0,1.0,99,-99.99,,,-99.99,,2013-01-10 07:32:00,
2013-01-10 02:42:00,25.0,25.0,-100.00,SE,135,1.0,1.0,99,-99.99,,,-99.99,,2013-01-10 07:42:00,
2013-01-10 02:52:00,25.0,25.0,-100.00,SE,135,0.0,1.0,99,-99.99,,,-99.99,,2013-01-10 07:52:00,
2013-01-10 03:02:00,24.0,24.0,-100.00,SE,135,0.0,1.0,99,-99.99,,,-99.99,,2013-01-10 08:02:00,
2013-01-10 03:12:00,24.0,24.0,-100.00,SE,135,1.0,1.0,99,-99.99,,,-99.99,,2013-01-10 08:12:00,
2013-01-10 03:22:00,24.0,24.0,-100.00,ESE,110,1.0,1.0,99,-99.99,,,-99.99,,2013-01-10 08:22:00,
2013-01-10 03:32:00,24.0,24.0,-100.00,ENE,70,1.0,2.0,99,-99.99,,,-99.99,,2013-01-10 08:32:00,
2013-01-10 03:42:00,24.0,24.0,-100.00,ENE,70,2.0,3.0,99,-99.99,,,-99.99,,2013-01-10 08:42:00,
2013-01-10 03:52:00,24.0,24.0,-100.00,NE,55,2.0,4.0,99,-99.99,,,-99.99,,2013-01-10 08:52:00,
2013-01-10 04:02:00,25.0,25.0,-100.00,ENE,65,4.0,6.0,99,-99.99,,,-99.99,,2013-01-10 09:02:00,
2013-01-10 04:12:00,26.0,25.0,-100.00,ENE,65,4.0,6.0,99,-99.99,,,-99.99,,2013-01-10 09:12:00,
2013-01-10 04:22:00,26.0,26.0,-100.00,ENE,70,4.0,6.0,99,-99.99,,,-99.99,,2013-01-10 09:22:00,
2013-01-10 04:32:00,26.0,26.0,-100.00,ENE,65,4.0,5.0,99,-99.99,,,-99.99,,2013-01-10 09:32:00,
2013-01-10 04:42:00,26.0,26.0,-100.00,ENE,70,3.0,5.0,99,-99.99,,,-99.99,,2013-01-10 09:42:00,
2013-01-10 04:52:00,27.0,27.0,-100.00,ENE,75,2.0,4.0,99,-99.99,,,-99.99,,2013-01-10 09:52:00,
2013-01-10 05:03:00,27.0,26.0,-100.00,ENE,65,3.0,4.0,99,-99.99,,,-99.99,,2013-01-10 10:03:00,
2013-01-10 05:12:00,27.0,27.0,-100.00,ENE,70,2.0,5.0,99,-99.99,,,-99.99,,2013-01-10 10:12:00,
2013-01-10 05:22:00,27.0,27.0,-100.00,East,80,2.0,3.0,99,-99.99,,,-99.99,,2013-01-10 10:22:00,
2013-01-10 05:32:00,27.0,27.0,-100.00,ENE,75,2.0,4.0,99,-99.99,,,-99.99,,2013-01-10 10:32:00,
2013-01-10 05:42:00,27.0,27.0,-100.00,ENE,70,3.0,4.0,99,-99.99,,,-99.99,,2013-01-10 10:42:00,
2013-01-10 05:52:00,27.0,27.0,-100.00,East,80,2.0,4.0,99,-99.99,,,-99.99,,2013-01-10 10:52:00,
2013-01-10 06:03:00,26.0,26.0,-100.00,ENE,65,4.0,5.0,99,-99.99,,,-99.99,,2013-01-10 11:03:00,
2013-01-10 06:12:00,26.0,26.0,-100.00,ENE,65,5.0,6.0,99,-99.99,,,-99.99,,2013-01-10 11:12:00,
2013-01-10 06:22:00,26.0,26.0,-100.00,ENE,70,7.0,9.0,99,-99.99,,,-99.99,,2013-01-10 11:22:00,
2013-01-10 06:33:00,27.0,27.0,-100.00,East,85,4.0,7.0,99,-99.99,,,-99.99,,2013-01-10 11:33:00,
2013-01-10 06:43:00,27.0,27.0,-100.00,East,90,4.0,6.0,99,-99.99,,,-99.99,,2013-01-10 11:43:00,
2013-01-10 06:52:00,27.0,27.0,-100.00,East,95,4.0,4.0,99,-99.99,,,-99.99,,2013-01-10 11:52:00,
2013-01-10 07:03:00,27.0,27.0,-100.00,East,100,3.0,4.0,99,-99.99,,,-99.99,,2013-01-10 12:03:00,
2013-01-10 07:12:00,28.0,28.0,-100.00,East,85,6.0,9.0,99,-99.99,,,-99.99,,2013-01-10 12:12:00,
2013-01-10 07:22:00,29.0,29.0,-100.00,East,80,7.0,11.0,99,-99.99,,,-99.99,,2013-01-10 12:22:00,
2013-01-10 07:33:00,29.0,29.0,-100.00,East,80,7.0,11.0,99,-99.99,,,-99.99,,2013-01-10 12:33:00,
2013-01-10 07:43:00,29.0,29.0,-100.00,East,95,6.0,9.0,99,-99.99,,,-99.99,,2013-01-10 12:43:00,
2013-01-10 07:53:00,30.0,29.0,-100.00,East,95,7.0,9.0,99,-99.99,,,-99.99,,2013-01-10 12:53:00,
2013-01-10 08:02:00,30.0,29.0,-100.00,East,90,7.0,9.0,98,-99.99,,,-99.99,,2013-01-10 13:02:00,
2013-01-10 08:12:00,30.0,29.0,-100.00,East,90,7.0,11.0,97,-99.99,,,-99.99,,2013-01-10 13:12:00,
2013-01-10 08:22:00,30.0,29.0,-100.00,East,95,7.0,11.0,96,-99.99,,,-99.99,,2013-01-10 13:22:00,
2013-01-10 08:32:00,30.0,29.0,-100.00,East,95,7.0,9.0,96,-99.99,,,-99.99,,2013-01-10 13:32:00,
2013-01-10 08:42:00,30.0,29.0,-100.00,East,90,7.0,10.0,94,-99.99,,,-99.99,,2013-01-10 13:42:00,
2013-01-10 08:52:00,31.0,28.0,-100.00,East,95,9.0,12.0,91,-99.99,,,-99.99,,2013-01-10 13:52:00,
2013-01-10 09:02:00,31.0,28.0,-100.00,East,90,9.0,12.0,87,-99.99,,,-99.99,,2013-01-10 14:02:00,
2013-01-10 09:12:00,31.0,27.0,-100.00,East,90,7.0,11.0,86,-99.99,,,-99.99,,2013-01-10 14:12:00,
2013-01-10 09:22:00,31.0,27.0,-100.00,East,85,7.0,11.0,84,-99.99,,,-99.99,,2013-01-10 14:22:00,
2013-01-10 09:33:00,31.0,27.0,-100.00,East,95,7.0,9.0,84,-99.99,,,-99.99,,2013-01-10 14:33:00,
2013-01-10 09:43:00,32.0,27.0,-100.00,East,95,7.0,12.0,83,-99.99,,,-99.99,,2013-01-10 14:43:00,
2013-01-10 09:53:00,32.0,27.0,-100.00,East,95,10.0,13.0,81,-99.99,,,-99.99,,2013-01-10 14:53:00,
2013-01-10 10:03:00,32.0,27.0,-100.00,East,100,7.0,13.0,81,-99.99,,,-99.99,,2013-01-10 15:03:00,
2013-01-10 10:12:00,32.0,27.0,-100.00,East,95,7.0,12.0,80,-99.99,,,-99.99,,2013-01-10 15:12:00,
2013-01-10 10:23:00,32.0,27.0,-100.00,East,95,10.0,14.0,80,-99.99,,,-99.99,,2013-01-10 15:23:00,
2013-01-10 10:33:00,32.0,27.0,-100.00,ESE,105,11.0,16.0,80,-99.99,,,-99.99,,2013-01-10 15:33:00,
2013-01-10 10:43:00,33.0,27.0,-100.00,ESE,105,11.0,16.0,79,-99.99,,,-99.99,,2013-01-10 15:43:00,
2013-01-10 10:53:00,33.0,27.0,-100.00,ESE,105,11.0,18.0,78,-99.99,,,-99.99,,2013-01-10 15:53:00,
2013-01-10 11:03:00,33.0,27.0,-100.00,ESE,110,11.0,16.0,78,-99.99,,,-99.99,,2013-01-10 16:03:00,
2013-01-10 11:13:00,33.0,27.0,-100.00,ESE,115,11.0,19.0,77,-99.99,,,-99.99,,2013-01-10 16:13:00,
2013-01-10 11:23:00,34.0,27.0,-100.00,ESE,110,10.0,18.0,75,-99.99,,,-99.99,,2013-01-10 16:23:00,
2013-01-10 11:33:00,35.0,26.0,-100.00,ESE,110,13.0,20.0,72,-99.99,,,-99.99,,2013-01-10 16:33:00,
2013-01-10 11:43:00,35.0,26.0,-100.00,ESE,105,14.0,21.0,70,-99.99,,,-99.99,,2013-01-10 16:43:00,
2013-01-10 11:52:00,35.0,26.0,-100.00,East,100,15.0,21.0,70,-99.99,,,-99.99,,2013-01-10 16:52:00,
2013-01-10 12:03:00,35.0,26.0,-100.00,ESE,105,16.0,21.0,69,-99.99,,,-99.99,,2013-01-10 17:03:00,
2013-01-10 12:12:00,35.0,26.0,-100.00,ESE,120,12.0,22.0,68,-99.99,,,-99.99,,2013-01-10 17:12:00,
2013-01-10 12:22:00,35.0,25.0,-100.00,SE,125,13.0,21.0,66,-99.99,,,-99.99,,2013-01-10 17:22:00,
2013-01-10 12:33:00,35.0,25.0,-100.00,SE,125,14.0,18.0,66,-99.99,,,-99.99,,2013-01-10 17:33:00,
2013-01-10 12:42:00,36.0,26.0,-100.00,SSE,150,7.0,18.0,67,-99.99,,,-99.99,,2013-01-10 17:42:00,
2013-01-10 12:53:00,36.0,26.0,-100.00,SE,130,9.0,16.0,67,-99.99,,,-99.99,,2013-01-10 17:53:00,
2013-01-10 13:03:00,35.0,26.0,-100.00,SE,125,9.0,16.0,70,-99.99,,,-99.99,,2013-01-10 18:03:00,
2013-01-10 13:12:00,35.0,27.0,-100.00,ESE,115,9.0,12.0,72,-99.99,,,-99.99,,2013-01-10 18:12:00,
2013-01-10 13:23:00,35.0,27.0,-100.00,ESE,115,7.0,14.0,72,-99.99,,,-99.99,,2013-01-10 18:23:00,
2013-01-10 13:33:00,35.0,27.0,-100.00,ESE,105,7.0,14.0,73,-99.99,,,-99.99,,2013-01-10 18:33:00,
2013-01-10 13:43:00,35.0,27.0,-100.00,ESE,120,11.0,16.0,73,-99.99,,,-99.99,,2013-01-10 18:43:00,
2013-01-10 13:52:00,35.0,28.0,-100.00,ESE,115,11.0,16.0,75,-99.99,,,-99.99,,2013-01-10 18:52:00,
2013-01-10 14:03:00,35.0,29.0,-100.00,ESE,110,10.0,16.0,77,-99.99,,,-99.99,,2013-01-10 19:03:00,
2013-01-10 14:13:00,35.0,29.0,-100.00,ESE,105,10.0,17.0,79,-99.99,,,-99.99,,2013-01-10 19:13:00,
2013-01-10 14:23:00,35.0,30.0,-100.00,ESE,110,10.0,16.0,80,-99.99,,,-99.99,,2013-01-10 19:23:00,
2013-01-10 14:33:00,35.0,29.0,-100.00,ESE,115,11.0,17.0,79,-99.99,,,-99.99,,2013-01-10 19:33:00,
2013-01-10 14:43:00,35.0,30.0,-100.00,SE,125,10.0,16.0,80,-99.99,,,-99.99,,2013-01-10 19:43:00,
2013-01-10 14:53:00,35.0,30.0,-100.00,SE,125,9.0,15.0,81,-99.99,,,-99.99,,2013-01-10 19:53:00,
2013-01-10 15:03:00,35.0,31.0,-100.00,SE,125,8.0,14.0,82,-99.99,,,-99.99,,2013-01-10 20:03:00,
2013-01-10 15:13:00,35.0,31.0,-100.00,SE,135,10.0,17.0,85,-99.99,,,-99.99,,2013-01-10 20:13:00,
2013-01-10 15:24:00,35.0,31.0,-100.00,SE,130,11.0,18.0,86,-99.99,,,-99.99,,2013-01-10 20:24:00,
2013-01-10 15:33:00,35.0,32.0,-100.00,ESE,110,11.0,17.0,88,-99.99,,,-99.99,,2013-01-10 20:33:00,
2013-01-10 15:43:00,35.0,33.0,-100.00,SE,125,9.0,17.0,90,-99.99,,,-99.99,,2013-01-10 20:43:00,
2013-01-10 15:53:00,35.0,33.0,-100.00,ESE,120,9.0,15.0,92,-99.99,,,-99.99,,2013-01-10 20:53:00,
2013-01-10 16:04:00,35.0,33.0,-100.00,SE,130,12.0,17.0,92,-99.99,,,-99.99,,2013-01-10 21:04:00,
2013-01-10 16:12:00,35.0,33.0,-100.00,SE,125,10.0,14.0,92,-99.99,,,-99.99,,2013-01-10 21:12:00,
2013-01-10 16:23:00,36.0,34.0,-100.00,ESE,110,10.0,17.0,92,-99.99,,,-99.99,,2013-01-10 21:23:00,
2013-01-10 16:33:00,36.0,33.0,-100.00,ESE,110,11.0,18.0,91,-99.99,,,-99.99,,2013-01-10 21:33:00,
2013-01-10 16:42:00,36.0,34.0,-100.00,ESE,110,12.0,20.0,91,-99.99,,,-99.99,,2013-01-10 21:42:00,
2013-01-10 16:53:00,36.0,34.0,-100.00,ESE,120,12.0,19.0,90,-99.99,,,-99.99,,2013-01-10 21:53:00,
2013-01-10 17:04:00,37.0,33.0,-100.00,ESE,120,12.0,19.0,87,-99.99,,,-99.99,,2013-01-10 22:04:00,
2013-01-10 17:12:00,37.0,33.0,-100.00,SE,125,11.0,17.0,87,-99.99,,,-99.99,,2013-01-10 22:12:00,
2013-01-10 17:26:00,37.0,33.0,-100.00,ESE,120,12.0,17.0,87,-99.99,,,-99.99,,2013-01-10 22:26:00,
2013-01-10 17:33:00,37.0,33.0,-100.00,SE,130,14.0,21.0,85,-99.99,,,-99.99,,2013-01-10 22:33:00,
2013-01-10 17:43:00,37.0,34.0,-100.00,SE,125,14.0,21.0,88,-99.99,,,-99.99,,2013-01-10 22:43:00,
2013-01-10 18:03:00,36.0,35.0,-100.00,ESE,120,14.0,24.0,95,-99.99,,,-99.99,,2013-01-10 23:03:00,
2013-01-10 18:13:00,36.0,35.0,-100.00,ESE,120,14.0,22.0,96,-99.99,,,-99.99,,2013-01-10 23:13:00,
2013-01-10 18:23:00,36.0,35.0,-100.00,SE,125,12.0,23.0,96,-99.99,,,-99.99,,2013-01-10 23:23:00,
2013-01-10 18:33:00,37.0,36.0,-100.00,SE,125,15.0,22.0,96,-99.99,,,-99.99,,2013-01-10 23:33:00,
2013-01-10 18:43:00,37.0,36.0,-100.00,SE,130,15.0,22.0,96,-99.99,,,-99.99,,2013-01-10 23:43:00,
2013-01-10 18:53:00,37.0,36.0,-100.00,SE,130,14.0,24.0,96,-99.99,,,-99.99,,2013-01-10 23:53:00,
2013-01-10 19:03:00,37.0,36.0,-100.00,SE,125,13.0,20.0,96,-99.99,,,-99.99,,2013-01-11 00:03:00,
2013-01-10 19:13:00,37.0,36.0,-100.00,SE,130,16.0,24.0,97,-99.99,,,-99.99,,2013-01-11 00:13:00,
2013-01-10 19:33:00,38.0,37.0,-100.00,SE,130,14.0,22.0,98,-99.99,,,-99.99,,2013-01-11 00:33:00,
2013-01-10 19:42:00,38.0,37.0,-100.00,SE,125,14.0,25.0,98,-99.99,,,-99.99,,2013-01-11 00:42:00,
2013-01-10 20:03:00,38.0,37.0,-100.00,ESE,120,17.0,24.0,98,-99.99,,,-99.99,,2013-01-11 01:03:00,
2013-01-10 20:13:00,38.0,37.0,-100.00,SE,125,14.0,22.0,98,-99.99,,,-99.99,,2013-01-11 01:13:00,
2013-01-10 20:23:00,38.0,37.0,-100.00,SE,125,14.0,24.0,98,-99.99,,,-99.99,,2013-01-11 01:23:00,
2013-01-10 20:34:00,38.0,37.0,-100.00,SE,130,13.0,19.0,97,-99.99,,,-99.99,,2013-01-11 01:34:00,
2013-01-10 20:43:00,38.0,38.0,-100.00,ESE,120,12.0,22.0,97,-99.99,,,-99.99,,2013-01-11 01:43:00,
2013-01-10 20:53:00,38.0,37.0,-100.00,SE,125,13.0,21.0,96,-99.99,,,-99.99,,2013-01-11 01:53:00,
2013-01-10 21:03:00,39.0,37.0,-100.00,SE,140,11.0,21.0,95,-99.99,,,-99.99,,2013-01-11 02:03:00,
2013-01-10 21:13:00,39.0,37.0,-100.00,SE,130,14.0,21.0,93,-99.99,,,-99.99,,2013-01-11 02:13:00,
2013-01-10 21:23:00,39.0,37.0,-100.00,SE,130,13.0,20.0,92,-99.99,,,-99.99,,2013-01-11 02:23:00,
2013-01-10 21:33:00,39.0,37.0,-100.00,SE,130,12.0,19.0,92,-99.99,,,-99.99,,2013-01-11 02:33:00,
2013-01-10 21:43:00,39.0,37.0,-100.00,SE,125,11.0,18.0,91,-99.99,,,-99.99,,2013-01-11 02:43:00,
2013-01-10 21:53:00,39.0,37.0,-100.00,SE,130,12.0,17.0,90,-99.99,,,-99.99,,2013-01-11 02:53:00,
2013-01-10 22:03:00,39.0,37.0,-100.00,SE,130,12.0,17.0,90,-99.99,,,-99.99,,2013-01-11 03:03:00,
2013-01-10 22:12:00,39.0,37.0,-100.00,SE,125,12.0,19.0,90,-99.99,,,-99.99,,2013-01-11 03:12:00,
2013-01-10 22:23:00,40.0,37.0,-100.00,SE,130,10.0,17.0,90,-99.99,,,-99.99,,2013-01-11 03:23:00,
2013-01-10 22:33:00,40.0,37.0,-100.00,SE,135,11.0,19.0,89,-99.99,,,-99.99,,2013-01-11 03:33:00,
2013-01-10 22:43:00,40.0,37.0,-100.00,SE,135,9.0,18.0,89,-99.99,,,-99.99,,2013-01-11 03:43:00,
2013-01-10 22:53:00,40.0,37.0,-100.00,SE,135,9.0,18.0,89,-99.99,,,-99.99,,2013-01-11 03:53:00,
2013-01-10 23:02:00,41.0,38.0,-100.00,SE,125,11.0,17.0,89,-99.99,,,-99.99,,2013-01-11 04:02:00,
2013-01-10 23:12:00,40.0,38.0,-100.00,SE,130,9.0,16.0,89,-99.99,,,-99.99,,2013-01-11 04:12:00,
2013-01-10 23:22:00,40.0,37.0,-100.00,SE,130,12.0,20.0,89,-99.99,,,-99.99,,2013-01-11 04:22:00,
2013-01-10 23:33:00,40.0,37.0,-100.00,SE,130,12.0,17.0,89,-99.99,,,-99.99,,2013-01-11 04:33:00,
2013-01-10 23:43:00,40.0,37.0,-100.00,SE,130,12.0,19.0,89,-99.99,,,-99.99,,2013-01-11 04:43:00,
2013-01-10 23:52:00,41.0,38.0,-100.00,SE,125,12.0,19.0,89,-99.99,,,-99.99,,2013-01-11 04:52:00,